Location: *
(49.6619°S, 177.4603°W)
Time: 06:28:06
(UTC+00:00)

SeaSat 1 - Pass Details

Date: 31 January 2023
Orbit: 743 x 745 km, 108.0° (Epoch: 01 April)

Event Time Altitude Azimuth Distance (km) Brightness Sun altitude
Exits shadow 08:31:13 - 7° (N) 3,113 5.2 -8.3°
Reaches altitude 10° 08:33:25 10° 359° (N) 2,273 4.6 -8.5°
Maximum altitude 08:38:01 38° 292° (WNW) 1,152 3.7 -9.1°
Drops below altitude 10° 08:42:40 10° 223° (SW) 2,299 6.6 -9.7°
Sets 08:45:07 0° 215° (SW) 3,231 7.6 -10.0°
